| time (UTC) | temp F | wind direction | speed MPH | gust MPH | rain 1hr in | rain 24hr in | rain mn in | humidity % | barometer mb |
| 20260510224508 | 66 | 193 | 0.0 | 9.0 | 0.00 | 0.00 | 0.00 | 31 | 1015.6 |
| 20260510224007 | 66 | 137 | 1.0 | 9.0 | 0.00 | 0.00 | 0.00 | 32 | 1015.5 |
| 20260510223510 | 66 | 124 | 0.0 | 6.0 | 0.00 | 0.00 | 0.00 | 30 | 1015.6 |
| 20260510223007 | 67 | 155 | 1.0 | 6.0 | 0.00 | 0.00 | 0.00 | 29 | 1015.6 |
| 20260510222507 | 67 | 182 | 0.0 | 0.0 | 0.00 | 0.00 | 0.00 | 29 | 1015.7 |
| 20260510222007 | 67 | 182 | 0.0 | 1.0 | 0.00 | 0.00 | 0.00 | 30 | 1015.7 |
| 20260510221506 | 67 | 175 | 0.0 | 1.0 | 0.00 | 0.00 | 0.00 | 29 | 1015.8 |
| 20260510221006 | 67 | 166 | 0.0 | 1.0 | 0.00 | 0.00 | 0.00 | 30 | 1015.8 |
| 20260510220506 | 67 | 166 | 0.0 | 1.0 | 0.00 | 0.00 | 0.00 | 28 | 1015.9 |
| 20260510220006 | 67 | 166 | 0.0 | 4.0 | 0.00 | 0.00 | 0.00 | 30 | 1016.0 |
| 20260510215505 | 67 | 166 | 0.0 | 6.0 | 0.00 | 0.00 | 0.00 | 29 | 1015.9 |
| 20260510215005 | 67 | 166 | 0.0 | 10.0 | 0.00 | 0.00 | 0.00 | 29 | 1016.0 |
| 20260510214505 | 68 | 158 | 5.0 | 10.0 | 0.00 | 0.00 | 0.00 | 29 | 1016.1 |
| 20260510214006 | 69 | 211 | 0.0 | 1.0 | 0.00 | 0.00 | 0.00 | 31 | 1016.1 |
| 20260510213507 | 69 | 211 | 0.0 | 0.0 | 0.00 | 0.00 | 0.00 | 30 | 1016.2 |
| 20260510213005 | 69 | 211 | 0.0 | 0.0 | 0.00 | 0.00 | 0.00 | 28 | 1016.2 |
| 20260510212503 | 68 | 211 | 0.0 | 0.0 | 0.00 | 0.00 | 0.00 | 29 | 1016.2 |
| 20260510212003 | 67 | 211 | 0.0 | 0.0 | 0.00 | 0.00 | 0.00 | 30 | 1016.3 |
| 20260510211504 | 67 | 152 | 0.0 | 0.0 | 0.00 | 0.00 | 0.00 | 29 | 1016.4 |
| 20260510211002 | 67 | 152 | 0.0 | 2.0 | 0.00 | 0.00 | 0.00 | 29 | 1016.4 |
| 20260510210506 | 67 | 139 | 0.0 | 8.0 | 0.00 | 0.00 | 0.00 | 30 | 1016.4 |
| 20260510210003 | 67 | 139 | 0.0 | 8.0 | 0.00 | 0.00 | 0.00 | 31 | 1016.4 |
| 20260510205503 | 67 | 129 | 0.0 | 8.0 | 0.00 | 0.00 | 0.00 | 32 | 1016.4 |
| 20260510205003 | 66 | 154 | 1.0 | 8.0 | 0.00 | 0.00 | 0.00 | 33 | 1016.5 |
| 20260510204501 | 66 | 165 | 0.0 | 6.0 | 0.00 | 0.00 | 0.00 | 31 | 1016.5 |
| 20260510204001 | 66 | 162 | 0.0 | 8.0 | 0.00 | 0.00 | 0.00 | 32 | 1016.5 |
| 20260510203501 | 67 | 162 | 2.0 | 8.0 | 0.00 | 0.00 | 0.00 | 31 | 1016.4 |
| 20260510203001 | 67 | 187 | 0.0 | 5.0 | 0.00 | 0.00 | 0.00 | 29 | 1016.4 |
| 20260510202502 | 67 | 206 | 0.0 | 10.0 | 0.00 | 0.00 | 0.00 | 32 | 1016.4 |
| 20260510202002 | 67 | 181 | 0.0 | 10.0 | 0.00 | 0.00 | 0.00 | 33 | 1016.5 |
| 20260510201500 | 68 | 183 | 0.0 | 4.0 | 0.00 | 0.00 | 0.00 | 31 | 1016.6 |
| 20260510201103 | 68 | 290 | 0.0 | 2.0 | 0.00 | 0.00 | 0.00 | 29 | 1016.5 |
| 20260510200559 | 68 | 292 | 0.0 | 3.0 | 0.00 | 0.00 | 0.00 | 29 | 1016.6 |
| 20260510200118 | 67 | 293 | 0.0 | 5.0 | 0.00 | 0.00 | 0.00 | 31 | 1016.7 |
| 20260510195557 | 67 | 177 | 0.0 | 3.0 | 0.00 | 0.00 | 0.00 | 32 | 1016.6 |
| 20260510195056 | 66 | 258 | 0.0 | 4.0 | 0.00 | 0.00 | 0.00 | 31 | 1016.6 |
| 20260510194606 | 66 | 148 | 0.0 | 6.0 | 0.00 | 0.00 | 0.00 | 33 | 1016.5 |
| 20260510194057 | 66 | 195 | 0.0 | 6.0 | 0.00 | 0.00 | 0.00 | 34 | 1016.5 |
| 20260510193559 | 67 | 215 | 0.0 | 3.0 | 0.00 | 0.00 | 0.00 | 30 | 1016.5 |
| 20260510193106 | 66 | 229 | 0.0 | 1.0 | 0.00 | 0.00 | 0.00 | 31 | 1016.6 |
| 20260510192556 | 66 | 229 | 0.0 | 0.0 | 0.00 | 0.00 | 0.00 | 34 | 1016.7 |
| 20260510192052 | 65 | 229 | 0.0 | 3.0 | 0.00 | 0.00 | 0.00 | 38 | 1016.7 |
| 20260510191600 | 65 | 228 | 0.0 | 6.0 | 0.00 | 0.00 | 0.00 | 38 | 1016.8 |
| 20260510191049 | 65 | 156 | 0.0 | 6.0 | 0.00 | 0.00 | 0.00 | 36 | 1016.7 |
| 20260510190551 | 65 | 191 | 0.0 | 5.0 | 0.00 | 0.00 | 0.00 | 35 | 1016.7 |
| 20260510190050 | 65 | 197 | 0.0 | 3.0 | 0.00 | 0.00 | 0.00 | 38 | 1016.8 |
| 20260510185551 | 64 | 162 | 0.0 | 1.0 | 0.00 | 0.00 | 0.00 | 37 | 1016.8 |
| 20260510185050 | 64 | 162 | 0.0 | 8.0 | 0.00 | 0.00 | 0.00 | 39 | 1016.9 |
| 20260510184549 | 64 | 162 | 2.0 | 8.0 | 0.00 | 0.00 | 0.00 | 37 | 1016.8 |
| 20260510184049 | 65 | 259 | 0.0 | 5.0 | 0.00 | 0.00 | 0.00 | 35 | 1016.9 |
| 20260510183549 | 65 | 258 | 0.0 | 3.0 | 0.00 | 0.00 | 0.00 | 38 | 1016.9 |
| 20260510183055 | 65 | 231 | 0.0 | 3.0 | 0.00 | 0.00 | 0.00 | 36 | 1016.9 |
| 20260510182549 | 65 | 253 | 0.0 | 2.0 | 0.00 | 0.00 | 0.00 | 39 | 1016.9 |
| 20260510182048 | 65 | 256 | 0.0 | 4.0 | 0.00 | 0.00 | 0.00 | 38 | 1017.0 |
| 20260510181546 | 64 | 210 | 0.0 | 2.0 | 0.00 | 0.00 | 0.00 | 37 | 1017.1 |
| 20260510181046 | 64 | 210 | 0.0 | 2.0 | 0.00 | 0.00 | 0.00 | 37 | 1017.1 |
| 20260510180546 | 64 | 210 | 0.0 | 1.0 | 0.00 | 0.00 | 0.00 | 37 | 1017.1 |
| 20260510180045 | 64 | 209 | 0.0 | 2.0 | 0.00 | 0.00 | 0.00 | 40 | 1017.0 |
| 20260510175545 | 64 | 210 | 0.0 | 2.0 | 0.00 | 0.00 | 0.00 | 40 | 1017.0 |
| 20260510175044 | 65 | 258 | 0.0 | 0.0 | 0.00 | 0.00 | 0.00 | 40 | 1017.1 |
| 20260510174545 | 64 | 258 | 0.0 | 0.0 | 0.00 | 0.00 | 0.00 | 39 | 1017.2 |
| 20260510174042 | 64 | 258 | 0.0 | 8.0 | 0.00 | 0.00 | 0.00 | 39 | 1017.2 |
| 20260510173540 | 63 | 261 | 0.0 | 8.0 | 0.00 | 0.00 | 0.00 | 41 | 1017.3 |
| 20260510173047 | 62 | 241 | 0.0 | 4.0 | 0.00 | 0.00 | 0.00 | 40 | 1017.3 |
| 20260510172539 | 62 | 241 | 0.0 | 6.0 | 0.00 | 0.00 | 0.00 | 39 | 1017.3 |
| 20260510172040 | 62 | 241 | 0.0 | 6.0 | 0.00 | 0.00 | 0.00 | 46 | 1017.2 |
| 20260510171542 | 62 | 235 | 0.0 | 0.0 | 0.00 | 0.00 | 0.00 | 43 | 1017.2 |
| 20260510171035 | 62 | 235 | 0.0 | 0.0 | 0.00 | 0.00 | 0.00 | 44 | 1017.2 |
| 20260510170533 | 61 | 235 | 0.0 | 0.0 | 0.00 | 0.00 | 0.00 | 43 | 1017.1 |
| 20260510170032 | 61 | 237 | 0.0 | 6.0 | 0.00 | 0.00 | 0.00 | 46 | 1017.1 |
| 20260510165531 | 60 | 236 | 0.0 | 6.0 | 0.00 | 0.00 | 0.00 | 51 | 1017.1 |
| 20260510165031 | 60 | 212 | 0.0 | 1.0 | 0.00 | 0.00 | 0.00 | 49 | 1017.1 |
| 20260510164541 | 60 | 212 | 0.0 | 1.0 | 0.00 | 0.00 | 0.00 | 47 | 1017.1 |
| 20260510164032 | 60 | 212 | 0.0 | 4.0 | 0.00 | 0.00 | 0.00 | 48 | 1017.0 |
| 20260510163531 | 59 | 210 | 0.0 | 3.0 | 0.00 | 0.00 | 0.00 | 53 | 1016.9 |
| 20260510163026 | 59 | 189 | 0.0 | 3.0 | 0.00 | 0.00 | 0.00 | 54 | 1016.9 |
| 20260510162525 | 58 | 189 | 0.0 | 3.0 | 0.00 | 0.00 | 0.00 | 52 | 1016.9 |
| 20260510162023 | 58 | 189 | 0.0 | 3.0 | 0.00 | 0.00 | 0.00 | 54 | 1016.8 |
| 20260510161522 | 58 | 189 | 0.0 | 3.0 | 0.00 | 0.00 | 0.00 | 54 | 1016.8 |
| 20260510161020 | 57 | 190 | 0.0 | 3.0 | 0.00 | 0.00 | 0.00 | 58 | 1016.8 |
| 20260510160519 | 57 | 190 | 0.0 | 0.0 | 0.00 | 0.00 | 0.00 | 59 | 1016.8 |
| 20260510160024 | 56 | 190 | 0.0 | 0.0 | 0.00 | 0.00 | 0.00 | 58 | 1016.8 |
| 20260510155520 | 56 | 190 | 0.0 | 1.0 | 0.00 | 0.00 | 0.00 | 59 | 1016.8 |
| 20260510155016 | 56 | 190 | 0.0 | 4.0 | 0.00 | 0.00 | 0.00 | 61 | 1016.8 |
| 20260510154514 | 55 | 185 | 0.0 | 6.0 | 0.00 | 0.00 | 0.00 | 62 | 1016.8 |
| 20260510154015 | 55 | 187 | 1.0 | 9.0 | 0.00 | 0.00 | 0.00 | 62 | 1016.9 |
| 20260510153511 | 54 | 187 | 1.0 | 9.0 | 0.00 | 0.00 | 0.00 | 63 | 1016.9 |
| 20260510153011 | 54 | 189 | 0.0 | 3.0 | 0.00 | 0.00 | 0.00 | 63 | 1017.0 |
| 20260510152510 | 54 | 195 | 0.0 | 3.0 | 0.00 | 0.00 | 0.00 | 63 | 1017.0 |
| 20260510152009 | 53 | 204 | 0.0 | 0.0 | 0.00 | 0.00 | 0.00 | 65 | 1017.0 |
| 20260510151506 | 53 | 204 | 0.0 | 0.0 | 0.00 | 0.00 | 0.00 | 66 | 1017.0 |
| 20260510151006 | 52 | 205 | 0.0 | 1.0 | 0.00 | 0.00 | 0.00 | 68 | 1017.0 |
| 20260510150505 | 52 | 205 | 0.0 | 1.0 | 0.00 | 0.00 | 0.00 | 67 | 1017.0 |
| 20260510150005 | 53 | 212 | 0.0 | 0.0 | 0.00 | 0.00 | 0.00 | 67 | 1017.0 |
| 20260510145506 | 52 | 212 | 0.0 | 0.0 | 0.00 | 0.00 | 0.00 | 67 | 1016.9 |
| 20260510145004 | 52 | 216 | 0.0 | 3.0 | 0.00 | 0.00 | 0.00 | 68 | 1016.9 |
| 20260510144602 | 52 | 216 | 0.0 | 3.0 | 0.00 | 0.00 | 0.00 | 70 | 1016.9 |
| 20260510144100 | 51 | 216 | 0.0 | 0.0 | 0.00 | 0.00 | 0.00 | 73 | 1017.0 |
| 20260510143558 | 51 | 217 | 0.0 | 0.0 | 0.00 | 0.00 | 0.00 | 73 | 1017.0 |
| 20260510143058 | 50 | 218 | 0.0 | 2.0 | 0.00 | 0.00 | 0.00 | 77 | 1017.0 |
| 20260510142558 | 49 | 219 | 0.0 | 2.0 | 0.00 | 0.00 | 0.00 | 78 | 1016.9 |
| 20260510142057 | 48 | 225 | 0.0 | 0.0 | 0.00 | 0.00 | 0.00 | 79 | 1017.0 |
| 20260510141600 | 48 | 234 | 0.0 | 0.0 | 0.00 | 0.00 | 0.00 | 79 | 1017.0 |
| 20260510141052 | 48 | 236 | 0.0 | 0.0 | 0.00 | 0.00 | 0.00 | 80 | 1017.0 |
| 20260510140549 | 47 | 236 | 0.0 | 0.0 | 0.00 | 0.00 | 0.00 | 81 | 1016.9 |
| 20260510140052 | 47 | 237 | 0.0 | 0.0 | 0.00 | 0.00 | 0.00 | 83 | 1017.0 |
| 20260510135547 | 46 | 237 | 0.0 | 0.0 | 0.00 | 0.00 | 0.00 | 83 | 1016.8 |
| 20260510135046 | 46 | 237 | 0.0 | 0.0 | 0.00 | 0.00 | 0.00 | 83 | 1016.9 |
| 20260510134551 | 46 | 237 | 0.0 | 0.0 | 0.00 | 0.00 | 0.00 | 83 | 1017.0 |
| 20260510134045 | 46 | 237 | 0.0 | 0.0 | 0.00 | 0.00 | 0.00 | 83 | 1017.0 |
| 20260510133542 | 45 | 237 | 0.0 | 0.0 | 0.00 | 0.00 | 0.00 | 84 | 1017.0 |
| 20260510133054 | 45 | 237 | 0.0 | 0.0 | 0.00 | 0.00 | 0.00 | 84 | 1017.0 |
| 20260510132540 | 45 | 237 | 0.0 | 0.0 | 0.00 | 0.00 | 0.00 | 84 | 1016.9 |
| 20260510132038 | 45 | 237 | 0.0 | 0.0 | 0.00 | 0.00 | 0.00 | 84 | 1016.9 |
| 20260510131537 | 45 | 237 | 0.0 | 0.0 | 0.00 | 0.00 | 0.00 | 84 | 1016.9 |
| 20260510131037 | 45 | 237 | 0.0 | 0.0 | 0.00 | 0.00 | 0.00 | 84 | 1016.9 |
| 20260510130537 | 45 | 237 | 0.0 | 0.0 | 0.00 | 0.00 | 0.00 | 84 | 1017.0 |
| 20260510130036 | 45 | 237 | 0.0 | 0.0 | 0.00 | 0.00 | 0.00 | 85 | 1017.0 |
| 20260510125534 | 45 | 237 | 0.0 | 0.0 | 0.00 | 0.00 | 0.00 | 85 | 1016.8 |
| 20260510125034 | 45 | 237 | 0.0 | 0.0 | 0.00 | 0.00 | 0.00 | 85 | 1016.7 |
| 20260510124537 | 45 | 237 | 0.0 | 0.0 | 0.00 | 0.00 | 0.00 | 85 | 1016.8 |
| 20260510124033 | 45 | 237 | 0.0 | 0.0 | 0.00 | 0.00 | 0.00 | 85 | 1016.7 |
| 20260510123534 | 45 | 237 | 0.0 | 0.0 | 0.00 | 0.00 | 0.00 | 85 | 1016.6 |
| 20260510123037 | 45 | 237 | 0.0 | 0.0 | 0.00 | 0.00 | 0.00 | 85 | 1016.6 |
| 20260510122533 | 45 | 237 | 0.0 | 0.0 | 0.00 | 0.00 | 0.00 | 85 | 1016.5 |
| 20260510122031 | 45 | 237 | 0.0 | 0.0 | 0.00 | 0.00 | 0.00 | 85 | 1016.4 |
| 20260510121530 | 45 | 237 | 0.0 | 0.0 | 0.00 | 0.00 | 0.00 | 85 | 1016.4 |
| 20260510121029 | 45 | 237 | 0.0 | 0.0 | 0.00 | 0.00 | 0.00 | 85 | 1016.3 |
| 20260510120527 | 45 | 237 | 0.0 | 0.0 | 0.00 | 0.00 | 0.00 | 85 | 1016.3 |
| 20260510120030 | 45 | 237 | 0.0 | 0.0 | 0.00 | 0.00 | 0.00 | 85 | 1016.2 |
| 20260510115526 | 45 | 237 | 0.0 | 0.0 | 0.00 | 0.00 | 0.00 | 85 | 1016.1 |
| 20260510115027 | 45 | 237 | 0.0 | 0.0 | 0.00 | 0.00 | 0.00 | 85 | 1016.2 |
| 20260510114526 | 45 | 237 | 0.0 | 0.0 | 0.00 | 0.00 | 0.00 | 85 | 1016.2 |
| 20260510114030 | 45 | 237 | 0.0 | 0.0 | 0.00 | 0.00 | 0.00 | 85 | 1016.1 |
| 20260510113525 | 45 | 237 | 0.0 | 0.0 | 0.00 | 0.00 | 0.00 | 85 | 1016.1 |
| 20260510113025 | 45 | 237 | 0.0 | 0.0 | 0.00 | 0.00 | 0.00 | 85 | 1016.0 |
| 20260510112525 | 45 | 240 | 0.0 | 0.0 | 0.00 | 0.00 | 0.00 | 85 | 1016.1 |
| 20260510112027 | 45 | 252 | 0.0 | 0.0 | 0.00 | 0.00 | 0.00 | 85 | 1016.2 |
| 20260510111524 | 45 | 252 | 0.0 | 0.0 | 0.00 | 0.00 | 0.00 | 85 | 1016.1 |
| 20260510111023 | 45 | 252 | 0.0 | 0.0 | 0.00 | 0.00 | 0.00 | 85 | 1016.0 |
| 20260510110523 | 45 | 252 | 0.0 | 0.0 | 0.00 | 0.00 | 0.00 | 85 | 1016.0 |
| 20260510110023 | 45 | 255 | 0.0 | 0.0 | 0.00 | 0.00 | 0.00 | 85 | 1015.9 |
| 20260510105523 | 45 | 256 | 0.0 | 0.0 | 0.00 | 0.00 | 0.00 | 85 | 1015.8 |
| 20260510105025 | 45 | 256 | 0.0 | 0.0 | 0.00 | 0.00 | 0.00 | 85 | 1015.9 |
| 20260510104523 | 45 | 256 | 0.0 | 0.0 | 0.00 | 0.00 | 0.00 | 85 | 1015.9 |
| 20260510104021 | 45 | 256 | 0.0 | 0.0 | 0.00 | 0.00 | 0.00 | 85 | 1015.9 |
| 20260510103521 | 45 | 256 | 0.0 | 0.0 | 0.00 | 0.00 | 0.00 | 85 | 1015.8 |
| 20260510103020 | 45 | 256 | 0.0 | 0.0 | 0.00 | 0.00 | 0.00 | 85 | 1015.7 |
| 20260510102519 | 45 | 256 | 0.0 | 0.0 | 0.00 | 0.00 | 0.00 | 84 | 1015.7 |
| 20260510102019 | 45 | 256 | 0.0 | 0.0 | 0.00 | 0.00 | 0.00 | 84 | 1015.6 |
| 20260510101517 | 45 | 256 | 0.0 | 0.0 | 0.00 | 0.00 | 0.00 | 84 | 1015.5 |
| 20260510101016 | 45 | 256 | 0.0 | 0.0 | 0.00 | 0.00 | 0.00 | 84 | 1015.4 |
| 20260510100519 | 45 | 256 | 0.0 | 0.0 | 0.00 | 0.00 | 0.00 | 84 | 1015.4 |
| 20260510100016 | 45 | 256 | 0.0 | 0.0 | 0.00 | 0.00 | 0.00 | 83 | 1015.3 |
| 20260510095516 | 45 | 256 | 0.0 | 0.0 | 0.00 | 0.00 | 0.00 | 83 | 1015.4 |
| 20260510095018 | 45 | 256 | 0.0 | 0.0 | 0.00 | 0.00 | 0.00 | 83 | 1015.3 |
| 20260510094514 | 45 | 256 | 0.0 | 0.0 | 0.00 | 0.00 | 0.00 | 82 | 1015.4 |
| 20260510094014 | 45 | 256 | 0.0 | 0.0 | 0.00 | 0.00 | 0.00 | 83 | 1015.3 |
| 20260510093513 | 45 | 256 | 0.0 | 0.0 | 0.00 | 0.00 | 0.00 | 83 | 1015.2 |
| 20260510093013 | 45 | 256 | 0.0 | 0.0 | 0.00 | 0.00 | 0.00 | 82 | 1015.2 |
| 20260510092514 | 45 | 256 | 0.0 | 0.0 | 0.00 | 0.00 | 0.00 | 82 | 1015.1 |
| 20260510092012 | 45 | 256 | 0.0 | 0.0 | 0.00 | 0.00 | 0.00 | 83 | 1015.1 |
| 20260510091513 | 45 | 256 | 0.0 | 0.0 | 0.00 | 0.00 | 0.00 | 82 | 1015.1 |
| 20260510091011 | 45 | 256 | 0.0 | 0.0 | 0.00 | 0.00 | 0.00 | 82 | 1015.0 |
| 20260510090517 | 45 | 256 | 0.0 | 0.0 | 0.00 | 0.00 | 0.00 | 81 | 1014.9 |
| 20260510090010 | 45 | 265 | 0.0 | 0.0 | 0.00 | 0.00 | 0.00 | 81 | 1014.9 |
| 20260510085509 | 45 | 266 | 0.0 | 0.0 | 0.00 | 0.00 | 0.00 | 81 | 1014.9 |
| 20260510085010 | 45 | 272 | 0.0 | 0.0 | 0.00 | 0.00 | 0.00 | 80 | 1014.9 |
| 20260510084509 | 45 | 272 | 0.0 | 0.0 | 0.00 | 0.00 | 0.00 | 80 | 1015.0 |
| 20260510084011 | 45 | 272 | 0.0 | 0.0 | 0.00 | 0.00 | 0.00 | 79 | 1015.0 |
| 20260510083508 | 45 | 272 | 0.0 | 0.0 | 0.00 | 0.00 | 0.00 | 79 | 1015.0 |
| 20260510083007 | 45 | 272 | 0.0 | 0.0 | 0.00 | 0.00 | 0.00 | 79 | 1015.0 |
| 20260510082510 | 45 | 272 | 0.0 | 0.0 | 0.00 | 0.00 | 0.00 | 79 | 1014.9 |
| 20260510082007 | 45 | 272 | 0.0 | 0.0 | 0.00 | 0.00 | 0.00 | 79 | 1014.9 |
| 20260510081510 | 45 | 272 | 0.0 | 0.0 | 0.00 | 0.00 | 0.00 | 79 | 1014.9 |
| 20260510081005 | 45 | 272 | 0.0 | 0.0 | 0.00 | 0.00 | 0.00 | 79 | 1014.8 |
| 20260510080506 | 45 | 272 | 0.0 | 0.0 | 0.00 | 0.00 | 0.00 | 79 | 1014.8 |
| 20260510080005 | 45 | 272 | 0.0 | 0.0 | 0.00 | 0.00 | 0.00 | 79 | 1014.8 |
| 20260510075505 | 45 | 272 | 0.0 | 0.0 | 0.00 | 0.00 | 0.00 | 79 | 1014.7 |
| 20260510075004 | 45 | 272 | 0.0 | 0.0 | 0.00 | 0.00 | 0.00 | 79 | 1014.7 |
| 20260510074504 | 45 | 272 | 0.0 | 0.0 | 0.00 | 0.00 | 0.00 | 79 | 1014.7 |
| 20260510074008 | 45 | 272 | 0.0 | 0.0 | 0.00 | 0.00 | 0.00 | 79 | 1014.6 |
| 20260510073504 | 45 | 272 | 0.0 | 0.0 | 0.00 | 0.00 | 0.00 | 79 | 1014.7 |
| 20260510073006 | 45 | 272 | 0.0 | 0.0 | 0.00 | 0.00 | 0.00 | 79 | 1014.7 |
| 20260510072503 | 45 | 272 | 0.0 | 0.0 | 0.00 | 0.00 | 0.00 | 79 | 1014.8 |
| 20260510072004 | 45 | 272 | 0.0 | 0.0 | 0.00 | 0.00 | 0.00 | 79 | 1014.9 |
| 20260510071502 | 45 | 272 | 0.0 | 0.0 | 0.00 | 0.00 | 0.00 | 79 | 1014.9 |
| 20260510071002 | 45 | 272 | 0.0 | 0.0 | 0.00 | 0.00 | 0.00 | 79 | 1015.0 |
| 20260510070503 | 45 | 272 | 0.0 | 0.0 | 0.00 | 0.00 | 0.00 | 79 | 1015.1 |
| 20260510070004 | 45 | 272 | 0.0 | 1.0 | 0.00 | 0.00 | 0.00 | 79 | 1015.1 |
| 20260510065501 | 46 | 272 | 0.0 | 1.0 | 0.00 | 0.00 | 0.00 | 79 | 1015.0 |
| 20260510065101 | 46 | 272 | 0.0 | 2.0 | 0.00 | 0.00 | 0.00 | 78 | 1015.0 |
| 20260510064603 | 46 | 272 | 0.0 | 2.0 | 0.00 | 0.00 | 0.00 | 78 | 1014.9 |
| 20260510064101 | 46 | 276 | 0.0 | 0.0 | 0.00 | 0.00 | 0.00 | 78 | 1014.8 |
| 20260510063558 | 46 | 282 | 0.0 | 0.0 | 0.00 | 0.00 | 0.00 | 77 | 1014.9 |
| 20260510063102 | 46 | 282 | 0.0 | 0.0 | 0.00 | 0.00 | 0.00 | 77 | 1014.9 |
| 20260510062600 | 46 | 282 | 0.0 | 1.0 | 0.00 | 0.00 | 0.00 | 77 | 1014.9 |
| 20260510062056 | 46 | 282 | 0.0 | 1.0 | 0.00 | 0.00 | 0.00 | 78 | 1014.9 |
| 20260510061557 | 46 | 274 | 0.0 | 0.0 | 0.00 | 0.00 | 0.00 | 79 | 1014.8 |
| 20260510061057 | 46 | 274 | 0.0 | 0.0 | 0.00 | 0.00 | 0.00 | 78 | 1014.7 |
| 20260510060554 | 46 | 274 | 0.0 | 7.0 | 0.00 | 0.00 | 0.00 | 78 | 1014.6 |
| 20260510060054 | 46 | 274 | 1.0 | 7.0 | 0.00 | 0.00 | 0.00 | 78 | 1014.5 |
| 20260510055552 | 46 | 270 | 0.0 | 7.0 | 0.00 | 0.00 | 0.00 | 78 | 1014.5 |
| 20260510055052 | 47 | 267 | 0.0 | 4.0 | 0.00 | 0.00 | 0.00 | 78 | 1014.4 |
| 20260510054552 | 47 | 256 | 0.0 | 7.0 | 0.00 | 0.00 | 0.00 | 78 | 1014.4 |
| 20260510054052 | 47 | 271 | 0.0 | 7.0 | 0.00 | 0.00 | 0.00 | 78 | 1014.4 |
| 20260510053550 | 47 | 270 | 0.0 | 8.0 | 0.00 | 0.00 | 0.00 | 78 | 1014.4 |
| 20260510053050 | 47 | 267 | 0.0 | 8.0 | 0.00 | 0.00 | 0.00 | 77 | 1014.3 |
| 20260510052550 | 47 | 277 | 0.0 | 10.0 | 0.00 | 0.00 | 0.00 | 77 | 1014.4 |
| 20260510052049 | 47 | 281 | 0.0 | 10.0 | 0.00 | 0.00 | 0.00 | 77 | 1014.0 |
| 20260510051550 | 47 | 276 | 0.0 | 7.0 | 0.00 | 0.00 | 0.00 | 78 | 1014.2 |
| 20260510051048 | 47 | 278 | 0.0 | 7.0 | 0.00 | 0.00 | 0.00 | 77 | 1014.3 |
| 20260510050548 | 48 | 272 | 0.0 | 10.0 | 0.00 | 0.00 | 0.00 | 77 | 1014.3 |
| 20260510050048 | 48 | 265 | 1.0 | 10.0 | 0.00 | 0.00 | 0.00 | 76 | 1014.2 |
| 20260510045548 | 48 | 273 | 0.0 | 7.0 | 0.00 | 0.00 | 0.00 | 76 | 1014.2 |
| 20260510045052 | 48 | 271 | 0.0 | 7.0 | 0.00 | 0.00 | 0.00 | 76 | 1014.1 |
| 20260510044551 | 48 | 269 | 0.0 | 6.0 | 0.00 | 0.00 | 0.00 | 76 | 1014.0 |
| 20260510044051 | 48 | 276 | 0.0 | 4.0 | 0.00 | 0.00 | 0.00 | 76 | 1014.0 |
| 20260510043547 | 48 | 264 | 0.0 | 2.0 | 0.00 | 0.00 | 0.00 | 76 | 1014.2 |
| 20260510043057 | 48 | 281 | 0.0 | 8.0 | 0.00 | 0.00 | 0.00 | 75 | 1014.2 |
| 20260510042548 | 48 | 269 | 0.0 | 6.0 | 0.00 | 0.00 | 0.00 | 75 | 1014.1 |
| 20260510042046 | 48 | 197 | 0.0 | 7.0 | 0.00 | 0.00 | 0.00 | 74 | 1013.9 |
| 20260510041549 | 49 | 280 | 0.0 | 7.0 | 0.00 | 0.00 | 0.00 | 74 | 1013.7 |
| 20260510041046 | 49 | 274 | 0.0 | 7.0 | 0.00 | 0.00 | 0.00 | 74 | 1014.0 |
| 20260510040546 | 49 | 268 | 0.0 | 9.0 | 0.00 | 0.00 | 0.00 | 74 | 1014.5 |
| 20260510040050 | 49 | 274 | 0.0 | 10.0 | 0.00 | 0.00 | 0.00 | 74 | 1014.7 |
| 20260510035545 | 49 | 281 | 1.0 | 10.0 | 0.00 | 0.00 | 0.00 | 74 | 1014.5 |
| 20260510035046 | 49 | 253 | 0.0 | 12.0 | 0.00 | 0.00 | 0.00 | 74 | 1014.4 |
| 20260510034543 | 49 | 265 | 1.0 | 12.0 | 0.00 | 0.00 | 0.00 | 74 | 1014.2 |
| 20260510034043 | 49 | 279 | 1.0 | 8.0 | 0.00 | 0.00 | 0.00 | 74 | 1014.3 |
| 20260510033544 | 49 | 300 | 0.0 | 8.0 | 0.00 | 0.00 | 0.00 | 74 | 1014.1 |
| 20260510033043 | 49 | 266 | 0.0 | 14.0 | 0.00 | 0.00 | 0.00 | 74 | 1014.0 |
| 20260510032541 | 49 | 297 | 2.0 | 14.0 | 0.00 | 0.00 | 0.00 | 73 | 1013.8 |
| 20260510032038 | 49 | 256 | 3.0 | 16.0 | 0.00 | 0.00 | 0.00 | 73 | 1013.5 |
| 20260510031542 | 50 | 291 | 4.0 | 16.0 | 0.00 | 0.00 | 0.00 | 72 | 1013.2 |
| 20260510031036 | 50 | 270 | 2.0 | 12.0 | 0.00 | 0.00 | 0.00 | 71 | 1012.9 |
| 20260510030534 | 50 | 227 | 1.0 | 14.0 | 0.00 | 0.00 | 0.00 | 71 | 1012.7 |
| 20260510030034 | 50 | 277 | 3.0 | 19.0 | 0.00 | 0.00 | 0.00 | 70 | 1012.3 |
| 20260510025532 | 50 | 210 | 1.0 | 19.0 | 0.00 | 0.00 | 0.00 | 69 | 1012.0 |
| 20260510025033 | 51 | 284 | 1.0 | 19.0 | 0.00 | 0.00 | 0.00 | 68 | 1011.7 |
| 20260510024530 | 51 | 300 | 2.0 | 19.0 | 0.00 | 0.00 | 0.00 | 67 | 1011.6 |
| 20260510024029 | 51 | 303 | 3.0 | 18.0 | 0.00 | 0.00 | 0.00 | 66 | 1011.3 |
| 20260510023528 | 52 | 274 | 1.0 | 18.0 | 0.00 | 0.00 | 0.00 | 65 | 1011.0 |
| 20260510023026 | 52 | 272 | 2.0 | 15.0 | 0.00 | 0.00 | 0.00 | 64 | 1010.6 |
| 20260510022525 | 53 | 274 | 1.0 | 15.0 | 0.00 | 0.00 | 0.00 | 63 | 1010.2 |
| 20260510022024 | 53 | 271 | 3.0 | 22.0 | 0.00 | 0.00 | 0.00 | 63 | 1009.8 |
| 20260510021532 | 54 | 277 | 7.0 | 22.0 | 0.00 | 0.00 | 0.00 | 61 | 1009.3 |
| 20260510021021 | 55 | 279 | 7.0 | 19.0 | 0.00 | 0.00 | 0.00 | 59 | 1009.0 |
| 20260510020520 | 55 | 266 | 3.0 | 20.0 | 0.00 | 0.00 | 0.00 | 55 | 1008.5 |
| 20260510020018 | 56 | 250 | 4.0 | 16.0 | 0.00 | 0.00 | 0.00 | 53 | 1007.9 |
| 20260510015519 | 58 | 274 | 4.0 | 24.0 | 0.00 | 0.00 | 0.00 | 50 | 1007.8 |
| 20260510015022 | 59 | 244 | 8.0 | 24.0 | 0.00 | 0.00 | 0.00 | 46 | 1008.0 |
| 20260510014517 | 61 | 278 | 7.0 | 26.0 | 0.00 | 0.00 | 0.00 | 42 | 1007.8 |
| 20260510014018 | 62 | 269 | 9.0 | 26.0 | 0.00 | 0.00 | 0.00 | 39 | 1007.5 |
| 20260510013516 | 64 | 279 | 4.0 | 24.0 | 0.00 | 0.00 | 0.00 | 38 | 1007.0 |
| 20260510013015 | 65 | 261 | 7.0 | 20.0 | 0.00 | 0.00 | 0.00 | 35 | 1006.4 |
| 20260510012515 | 65 | 177 | 0.0 | 1.0 | 0.00 | 0.00 | 0.00 | 34 | 1005.7 |
| 20260510012014 | 65 | 177 | 0.0 | 1.0 | 0.00 | 0.00 | 0.00 | 34 | 1005.4 |
| 20260510011514 | 66 | 176 | 0.0 | 2.0 | 0.00 | 0.00 | 0.00 | 34 | 1005.4 |
| 20260510011014 | 66 | 173 | 0.0 | 3.0 | 0.00 | 0.00 | 0.00 | 32 | 1005.2 |
| 20260510010514 | 67 | 176 | 0.0 | 3.0 | 0.00 | 0.00 | 0.00 | 33 | 1005.0 |
| 20260510010014 | 67 | 180 | 0.0 | 5.0 | 0.00 | 0.00 | 0.00 | 32 | 1005.0 |
| 20260510005514 | 67 | 54 | 0.0 | 5.0 | 0.00 | 0.00 | 0.00 | 30 | 1004.9 |
| 20260510005014 | 68 | 154 | 0.0 | 1.0 | 0.00 | 0.00 | 0.00 | 29 | 1004.8 |
| 20260510004513 | 68 | 154 | 0.0 | 1.0 | 0.00 | 0.00 | 0.00 | 28 | 1004.7 |
| 20260510004014 | 68 | 154 | 0.0 | 0.0 | 0.00 | 0.00 | 0.00 | 27 | 1004.6 |
| 20260510003512 | 68 | 154 | 0.0 | 0.0 | 0.00 | 0.00 | 0.00 | 27 | 1004.5 |
| 20260510003012 | 68 | 154 | 0.0 | 2.0 | 0.00 | 0.00 | 0.00 | 27 | 1004.4 |
| 20260510002511 | 68 | 154 | 0.0 | 5.0 | 0.00 | 0.00 | 0.00 | 26 | 1004.4 |
| 20260510002011 | 68 | 154 | 0.0 | 9.0 | 0.00 | 0.00 | 0.00 | 27 | 1004.3 |
| 20260510001511 | 68 | 154 | 3.0 | 9.0 | 0.00 | 0.00 | 0.00 | 26 | 1004.4 |
| 20260510001013 | 68 | 184 | 0.0 | 6.0 | 0.00 | 0.00 | 0.00 | 26 | 1004.4 |
| 20260510000511 | 68 | 184 | 0.0 | 0.0 | 0.00 | 0.00 | 0.00 | 26 | 1004.5 |
| 20260510000016 | 68 | 184 | 0.0 | 1.0 | 0.00 | 0.00 | 0.00 | 25 | 1004.3 |
| 20260509235509 | 68 | 184 | 0.0 | 5.0 | 0.00 | 0.00 | 0.00 | 27 | 1004.3 |
| 20260509235011 | 69 | 184 | 0.0 | 5.0 | 0.00 | 0.00 | 0.00 | 26 | 1004.3 |
| 20260509234510 | 69 | 184 | 0.0 | 4.0 | 0.00 | 0.00 | 0.00 | 25 | 1004.2 |
| 20260509234010 | 68 | 185 | 0.0 | 0.0 | 0.00 | 0.00 | 0.00 | 27 | 1004.2 |
| 20260509233509 | 68 | 184 | 0.0 | 0.0 | 0.00 | 0.00 | 0.00 | 26 | 1004.3 |
| 20260509233009 | 68 | 185 | 0.0 | 0.0 | 0.00 | 0.00 | 0.00 | 25 | 1004.4 |
| 20260509232508 | 68 | 184 | 0.0 | 0.0 | 0.00 | 0.00 | 0.00 | 26 | 1004.4 |
| 20260509232008 | 68 | 184 | 0.0 | 0.0 | 0.00 | 0.00 | 0.00 | 26 | 1004.4 |
| 20260509231507 | 68 | 184 | 0.0 | 0.0 | 0.00 | 0.00 | 0.00 | 25 | 1004.3 |
| 20260509231007 | 68 | 185 | 0.0 | 0.0 | 0.00 | 0.00 | 0.00 | 26 | 1004.3 |
| 20260509230509 | 68 | 184 | 0.0 | 0.0 | 0.00 | 0.00 | 0.00 | 27 | 1004.3 |
| 20260509230008 | 68 | 185 | 0.0 | 0.0 | 0.00 | 0.00 | 0.00 | 27 | 1004.2 |
| 20260509225508 | 68 | 185 | 0.0 | 0.0 | 0.00 | 0.00 | 0.00 | 26 | 1004.2 |
| 20260509225007 | 68 | 184 | 0.0 | 0.0 | 0.00 | 0.00 | 0.00 | 27 | 1004.2 |